Location: Carri�res
(48.9069°N, 2.1792°E)
Time: 11:32:46
(UTC+00:00)

SeaSat 1 - Visible Passes

Search period start: 09 May 2021 00:00
Search period end: 19 May 2021 00:00
Orbit: 744 x 747 km, 108.0° (Epoch: 09 May)

Date Brightness Start Highest point End Pass type
(mag) Time Alt. Az. Time Alt. Az. Time Alt. Az.
09 May 3.7 01:11:13 10° NNE 01:15:39 34° NW 01:18:06 21° W visible
09 May 4.1 22:52:06 10° ENE 22:55:08 19° E 22:55:08 19° E visible
10 May 2.5 00:28:42 10° NNE 00:33:39 71° WNW 00:34:55 49° WSW visible
10 May 4.6 02:07:16 10° N 02:10:27 17° NW 02:13:36 10° WNW visible
10 May 2.7 23:46:33 10° NE 23:51:22 50° ESE 23:51:43 49° SE visible
11 May 3.8 01:24:22 10° NNE 01:28:43 32° NW 01:31:30 18° W visible
11 May 4.0 23:05:04 10° NE 23:08:32 21° E 23:08:32 21° E visible
12 May 2.6 00:41:49 10° NNE 00:46:44 66° WNW 00:48:19 42° WSW visible
12 May 4.7 02:20:28 10° N 02:23:29 16° NW 02:26:30 10° WNW visible
12 May 2.6 23:59:38 10° NE 00:04:30 55° ESE 00:05:08 51° SE visible
13 May 3.9 01:37:31 10° NNE 01:41:47 30° NW 01:44:54 16° W visible
13 May 3.8 23:18:03 10° NE 23:21:57 23° ESE 23:21:57 23° ESE visible
14 May 2.7 00:54:57 10° NNE 00:59:50 62° NW 01:01:43 36° WSW visible
14 May 4.7 02:33:40 10° N 02:36:32 16° NW 02:39:23 10° WNW visible
15 May 2.6 00:12:43 10° NE 00:17:37 59° ESE 00:18:33 50° SSE visible
15 May 3.9 01:50:40 10° NNE 01:54:51 28° NW 01:58:19 13° W visible
15 May 3.7 23:31:04 10° NE 23:35:07 25° ESE 23:35:22 25° ESE visible
16 May 2.8 01:08:04 10° NNE 01:12:55 57° NW 01:15:09 31° WSW visible
16 May 4.7 02:46:53 10° N 02:49:35 15° NW 02:52:16 10° WNW visible
17 May 2.5 00:25:48 10° NE 00:30:43 64° ESE 00:31:58 47° S visible
17 May 4.0 02:03:49 10° N 02:07:55 27° NW 02:11:44 11° W visible
17 May 3.6 23:44:04 10° NE 23:48:15 27° ESE 23:48:48 26° ESE visible
18 May 2.9 01:21:12 10° NNE 01:26:01 53° NW 01:28:34 26° WSW visible
18 May 4.7 03:00:05 10° N 03:02:37 14° NW 03:05:08 10° WNW visible
18 May 4.7 23:04:18 10° E 23:05:30 11° E 23:05:37 11° E visible
